Zurück zum Katalog

STARLINK-38036

AktivKommunikationSSO
NORAD 69756·PAYLOAD·🇺🇸 United States

Gestartet Jul 2, 2026 von Vandenberg Space Force Base

Loading…

Nächste Überflüge (nächste 24 Stunden)

TLE

AktuellSource: CelesTrak SupGP

Epoche: Sep 14, 2026, 14:58 UTC

1 69756C 26150T   26257.62409722 -.00060887  00000+0 -18904-2 0  2572
2 69756  97.2841  96.7117 0001694  87.5116 156.6779 15.33463943    18

Verfolge STARLINK-38036 in Echtzeit mit AllMySat

Download on the App Store